Home > Weather > Palma > Past weeks

Flag for Spain Past Weather in Palma, Majorca, Spain — Yesterday and Last 2 Weeks

Now
75 °F

Sunny.


Feels Like: 77 °F
Forecast: 64 / 84 °F
Wind: 15 mph from Northeast

Location: Palma De Mallorca / Son San Juan

Current Time: Jun 27, 2016 at 9:45:46 AM

Latest Report: Jun 27, 2016 at 9:00 AM


Visibility: 10 mi

Pressure: 30.15 "Hg

Humidity: 61%

Dew Point: 61 °F

Location of PalmaLocation

Past Weather in Palma — Graph

°F

Palma Temperature Yesterday

Maximum temperature yesterday: 84 °F (at 2:00 PM)
Minimum temperature yesterday: 72 °F (at 3:30 AM)
Average temperature yesterday: 77 °F

High & Low Weather Summary for the Past Weeks

 TemperatureHumidityPressure
High91 °F (Jun 13, 6:30 PM)100% (Jun 13, 1:00 AM)30.24 "Hg (Jun 13, 1:00 AM)
Low52 °F (Jun 19, 5:00 AM)25% (Jun 25, 7:00 PM)29.56 "Hg (Jun 15, 5:30 PM)
Average73 °F64%30.01 "Hg
* Reported Jun 12 8:00 AM — Jun 27 8:30 AM, Palma, Weather by CustomWeather, © 2016

Note: Actual official high and low records may vary slightly from our data, if they occured in-between our weather recording intervals... More about our weather records

Advertising

Palma Weather History for the Previous 24 Hours

Scroll right to see more
 ConditionsComfort  
Time TempWeatherWind HumidityBarometerVisibility
8:30 AM
Mon, Jun 27
73 °FSunny.13 mph65%30.15 "Hg10 mi
8:00 AM73 °FSunny.12 mph61%30.15 "Hg10 mi
7:30 AM68 °FSunny.10 mph73%30.15 "Hg10 mi
7:00 AM66 °FClear.8 mph73%30.15 "Hg10 mi
6:30 AM66 °FClear.12 mph68%30.15 "Hg10 mi
6:00 AM68 °FClear.13 mph60%30.15 "Hg10 mi
5:30 AM68 °FClear.9 mph60%30.12 "Hg10 mi
5:00 AM66 °FClear.8 mph78%30.12 "Hg10 mi
4:30 AM64 °FClear.7 mph88%30.15 "Hg10 mi
4:00 AM66 °FPassing clouds.5 mph83%30.15 "HgN/A
3:30 AM66 °FClear.5 mph83%30.12 "Hg10 mi
3:00 AM68 °FClear.2 mph78%30.12 "Hg10 mi
2:30 AM66 °FPassing clouds.3 mph83%30.15 "HgN/A
2:00 AM68 °FClear.3 mph78%30.12 "Hg10 mi
1:30 AM68 °FClear.5 mph83%30.15 "Hg10 mi
1:00 AM70 °FClear.2 mph78%30.12 "Hg10 mi
12:30 AM70 °FClear.7 mph78%30.12 "Hg10 mi
12:00 AM70 °FClear.8 mph78%30.12 "Hg10 mi
11:30 PM
Sun, Jun 26
72 °FClear.8 mph73%30.12 "Hg10 mi
11:00 PM72 °FClear.8 mph73%30.12 "Hg10 mi
10:30 PM73 °FClear.8 mph65%30.09 "Hg10 mi
10:00 PM73 °FPassing clouds.7 mph65%30.09 "HgN/A
9:30 PM75 °FPassing clouds.8 mph61%30.09 "HgN/A
9:00 PM77 °FPassing clouds.10 mph57%30.07 "HgN/A
8:30 PM79 °FPassing clouds.12 mph54%30.07 "HgN/A
8:00 PM79 °FPassing clouds.10 mph54%30.04 "HgN/A
7:30 PM81 °FPassing clouds.8 mph51%30.04 "HgN/A
7:00 PM81 °FPassing clouds.10 mph51%30.04 "HgN/A
6:30 PM81 °FSunny.12 mph48%30.07 "Hg10 mi
6:00 PM81 °FPassing clouds.13 mph48%30.07 "HgN/A
5:30 PM81 °FSunny.14 mph51%30.07 "Hg10 mi
5:00 PM81 °FPassing clouds.16 mph48%30.04 "HgN/A
4:30 PM82 °FPassing clouds.14 mph45%30.04 "HgN/A
4:00 PM84 °FPassing clouds.16 mph43%30.04 "HgN/A
3:30 PM82 °FPassing clouds.15 mph45%30.04 "HgN/A
3:00 PM84 °FPassing clouds.16 mph43%30.04 "HgN/A
2:30 PM82 °FSunny.20 mph42%30.04 "Hg10 mi
2:00 PM84 °FSunny.20 mph43%30.04 "Hg10 mi
1:30 PM81 °FSunny.21 mph48%30.04 "Hg10 mi
1:00 PM82 °FSunny.18 mph45%30.07 "Hg10 mi
12:30 PM81 °FPassing clouds.20 mph42%30.07 "HgN/A
12:00 PM81 °FPassing clouds.16 mph45%30.07 "HgN/A
11:30 AM79 °FPassing clouds.18 mph48%30.04 "HgN/A
11:00 AM79 °FPassing clouds.21 mph48%30.04 "HgN/A
10:30 AM79 °FPassing clouds.21 mph48%30.04 "HgN/A
10:00 AM79 °FPassing clouds.22 mph51%30.04 "HgN/A
9:30 AM77 °FPassing clouds.20 mph54%30.04 "HgN/A
9:00 AM75 °FSunny.21 mph61%30.01 "Hg10 mi
Weather by CustomWeather, © 2016

See weather overviewHow to use our weather pages